Location: Praha
(50.0830°N, 14.4670°E)
Time: 23:34:28
(UTC+01:00)

ISS - Pass Details

Date: 10 November 2019
Orbit: 412 x 421 km, 51.6° (Epoch: 15 November)

Event Time Altitude Azimuth Distance (km) Brightness Sun altitude
Exits shadow 05:00:39 39° 183° (S) 648 -2.9 -20.2°
Drops below altitude 10° 05:03:21 10° 137° (SE) 1,499 -0.3 -19.8°
Sets 05:05:30 0° 130° (SE) 2,359 0.9 -19.4°
